EW2070 Weather Reports


time (UTC)temp
C
wind
direction
speed
KPH
gust
KPH
rain 1hr
cm
rain 24hr
cm
rain mn
cm
humidity
%
barometer
mb
20260510170037 27 65 1.6 9.7 0.00 0.71 0.00 86 1017.3
20260510164520 28 66 3.2 6.4 0.00 0.71 0.00 82 1017.6
20260510163017 30 349 0.0 1.6 0.00 0.71 0.00 73 1017.7
20260510161558 30 338 0.0 3.2 0.00 0.71 0.00 74 1017.6
20260510160055 29 289 0.0 3.2 0.00 0.71 0.00 78 1017.7
20260510154548 29 270 0.0 3.2 0.00 0.71 0.00 80 1017.8
20260510153034 28 331 0.0 1.6 0.00 0.71 0.00 80 1018.1
20260510151523 28 342 0.0 1.6 0.00 0.71 0.00 81 1017.9
20260510150012 28 7 1.6 3.2 0.00 0.71 0.00 84 1017.8
20260510144609 27 243 0.0 3.2 0.00 0.71 0.00 85 1017.8
20260510143047 26 329 0.0 3.2 0.00 0.71 0.00 89 1017.7
20260510141525 25 187 0.0 1.6 0.00 0.71 0.00 94 1017.6
20260510140020 25 233 0.0 3.2 0.00 0.71 0.00 99 1017.4
20260510134609 24 26 0.0 1.6 0.00 0.71 0.00 100 1017.3
20260510133103 23 257 0.0 1.6 0.00 0.71 0.00 100 1017.2
20260510131543 23 254 0.0 3.2 0.00 0.71 0.00 100 1017.1
20260510130038 23 238 0.0 1.6 0.00 0.71 0.00 100 1016.9
20260510124517 23 243 0.0 1.6 0.00 0.71 0.00 100 1016.9
20260510123016 23 237 0.0 0.0 0.00 0.71 0.00 100 1016.7
20260510121607 22 259 0.0 0.0 0.00 0.71 0.00 100 1016.5
20260510120058 22 259 0.0 0.0 0.00 0.71 0.00 100 1016.4
20260510114614 21 259 0.0 0.0 0.00 0.71 0.00 100 1016.2
20260510113059 21 259 0.0 0.0 0.00 0.71 0.00 100 1016.1
20260510111556 21 259 0.0 0.0 0.00 0.71 0.00 100 1015.8
20260510110053 21 259 0.0 0.0 0.00 0.71 0.00 100 1015.8
20260510104558 21 259 0.0 0.0 0.00 0.71 0.00 100 1015.5
20260510103052 21 259 0.0 0.0 0.00 0.71 0.00 100 1015.3
20260510101534 21 259 0.0 0.0 0.00 0.71 0.00 100 1015.2
20260510100047 21 259 0.0 0.0 0.00 0.71 0.00 100 1014.8
20260510094514 21 259 0.0 0.0 0.00 0.71 0.00 100 1014.9
20260510093012 21 259 0.0 0.0 0.00 0.71 0.00 100 1014.7
20260510091554 21 259 0.0 0.0 0.00 0.71 0.00 100 1014.7
20260510090053 21 259 0.0 0.0 0.00 0.71 0.00 100 1014.5
20260510084535 22 259 0.0 0.0 0.00 0.71 0.00 100 1014.3
20260510083041 22 259 0.0 0.0 0.00 0.71 0.00 100 1014.1
20260510081517 22 259 0.0 0.0 0.00 0.71 0.00 100 1013.9
20260510080016 22 259 0.0 0.0 0.00 0.71 0.00 100 1014.0
20260510074606 22 259 0.0 1.6 0.00 0.71 0.00 100 1013.9
20260510073056 22 259 0.0 0.0 0.00 0.71 0.00 100 1014.2
20260510071538 22 262 0.0 0.0 0.00 0.71 0.00 100 1014.3
20260510070042 22 262 0.0 0.0 0.00 0.71 0.00 100 1014.4
20260510064517 22 262 0.0 0.0 0.00 0.71 0.00 100 1014.5
20260510063014 22 262 0.0 0.0 0.00 0.71 0.00 100 1014.9
20260510061555 22 262 0.0 0.0 0.00 0.71 0.00 100 1015.0
20260510060054 22 248 0.0 1.6 0.00 0.71 0.00 100 1015.1
20260510054534 22 1 0.0 0.0 0.00 0.71 0.00 100 1015.3
20260510053032 22 1 0.0 0.0 0.00 0.71 0.00 100 1015.5
20260510051522 22 1 0.0 0.0 0.00 0.71 0.00 100 1015.6
20260510050018 22 1 0.0 0.0 0.00 0.71 0.00 100 1015.9
20260510044516 21 1 0.0 0.0 0.00 0.71 0.00 99 1015.9
20260510043015 21 1 0.0 0.0 0.00 0.71 0.00 99 1016.0
20260510041514 21 1 0.0 0.0 0.00 0.71 0.00 99 1016.0
20260510040013 21 1 0.0 0.0 0.00 0.71 0.71 99 1016.0
20260510034512 22 1 0.0 0.0 0.00 0.71 0.71 99 1016.1
20260510033014 22 1 0.0 0.0 0.00 0.71 0.71 99 1016.0
20260510031630 22 1 0.0 0.0 0.00 0.71 0.71 99 1016.1
20260510030054 22 1 0.0 0.0 0.00 0.71 0.71 99 1016.0
20260510024554 22 1 0.0 0.0 0.00 0.71 0.71 99 1015.9
20260510023036 22 1 0.0 0.0 0.00 0.71 0.71 99 1015.7
20260510021539 22 1 0.0 0.0 0.00 0.71 0.71 99 1015.9
20260510020020 22 46 0.0 0.0 0.00 0.71 0.71 98 1015.4
20260510014517 22 46 0.0 0.0 0.00 0.71 0.71 98 1015.0
20260510013058 22 46 0.0 0.0 0.00 0.71 0.71 98 1015.1
20260510011600 22 46 0.0 0.0 0.00 0.71 0.71 97 1015.0
20260510010047 22 46 0.0 0.0 0.00 0.71 0.71 97 1015.0
20260510004540 22 46 0.0 0.0 0.00 0.71 0.71 96 1014.9
20260510003051 22 46 0.0 0.0 0.00 0.71 0.71 96 1014.7
20260510001541 23 46 0.0 0.0 0.00 0.71 0.71 95 1014.7
20260510000041 23 46 0.0 0.0 0.00 0.71 0.71 95 1014.4
20260509234544 23 46 0.0 0.0 0.00 0.71 0.71 94 1014.2
20260509233034 23 46 0.0 0.0 0.00 0.71 0.71 94 1014.2
20260509231534 23 49 0.0 3.2 0.00 0.71 0.71 93 1014.1
20260509230016 24 25 0.0 1.6 0.00 2.24 0.71 94 1014.0
20260509224515 23 79 0.0 1.6 0.00 2.24 0.71 94 1013.9
20260509223004 23 58 0.0 3.2 0.00 2.24 0.71 94 1013.8
20260509221504 24 51 0.0 0.0 0.00 2.24 0.71 95 1013.9
20260509220003 24 51 0.0 0.0 0.00 3.23 0.71 95 1013.8
20260509214502 23 50 0.0 1.6 0.00 3.23 0.71 94 1013.9
20260509213002 23 49 0.0 0.0 0.00 3.23 0.71 95 1013.8
20260509211501 23 349 0.0 3.2 0.00 3.23 0.71 95 1013.8
20260509210002 23 343 1.6 4.8 0.00 3.23 0.71 95 1013.7
20260509204605 24 61 1.6 9.7 0.51 3.23 0.71 95 1013.6
20260509203042 25 54 0.0 1.6 0.71 3.23 0.71 96 1013.9
20260509201543 25 86 0.0 0.0 0.71 3.23 0.71 95 1013.4
20260509200027 25 170 0.0 3.2 0.71 3.23 0.71 93 1013.6
20260509194531 27 30 0.0 3.2 0.23 2.72 0.23 88 1013.6
20260509193004 28 78 0.0 3.2 0.00 2.49 0.00 79 1013.4
20260509191504 30 56 0.0 3.2 0.00 2.49 0.00 73 1013.0
20260509190047 30 106 0.0 3.2 0.00 2.49 0.00 72 1013.2
20260509184543 30 266 0.0 4.8 0.00 2.49 0.00 70 1013.3
20260509183029 30 15 0.0 3.2 0.00 2.49 0.00 70 1013.6
20260509181523 30 59 0.0 4.8 0.00 2.49 0.00 71 1013.9
20260509180004 30 52 0.0 3.2 0.00 2.49 0.00 72 1014.1
20260509174503 30 232 0.0 3.2 0.00 2.49 0.00 72 1014.2
20260509173050 30 256 0.0 1.6 0.00 2.49 0.00 73 1014.2
20260509171551 30 271 0.0 3.2 0.00 2.49 0.00 75 1014.2